MOS 1 Rocket - Orbit

View from above orbital plane
View from above orbital plane
View from above satellite
View from above satellite

Ground track
Ground track

The orbit data is extracted from the following two-line orbital elements,

1 17528U 87018B   13138.19609889  .00000382  00000-0  95933-4 0   798
2 17528 097.4820 246.6356 0153712 287.4278 130.9981 14.49464654383770
Epoch (UTC): 18 May 2013 04:42:22
Eccentricity: 0.0153712
inclination: 97.4820°
perigee height: 618 km
apogee height: 836 km
right ascension of ascending node: 246.6356°
argument of perigee: 287.4278°
revolutions per day: 14.49464654
mean anomaly at epoch: 130.9981°
orbit number at epoch: 38377

The dashed part of the orbit path shows where the satellite is in the earth's shadow,  

Developed and maintained by Chris Peat, Heavens-Above GmbH. Please read the updated FAQ before sending e-mail. Imprint. DLR